Location: Wallasey
(53.4265°N, 3.0662°W)
Time: 21:28:57
(UTC+01:00)

XW-2B - Visible Passes

Search period start: 14 October 2019 00:00
Search period end: 24 October 2019 00:00
Orbit: 508 x 528 km, 97.5° (Epoch: 14 October)

Date Brightness Start Highest point End Pass type
(mag) Time Alt. Az. Time Alt. Az. Time Alt. Az.
14 Oct ? 06:59:33 10° NNE 07:03:09 42° E 07:06:43 10° S visible
14 Oct ? 19:21:19 10° SW 19:23:58 18° W 19:26:38 10° NW visible
15 Oct ? 06:45:39 10° NNE 06:49:01 31° E 06:52:21 10° SSE visible
15 Oct ? 19:06:40 10° SSW 19:09:48 24° W 19:12:55 10° NW visible
16 Oct ? 06:31:50 10° NE 06:34:51 23° E 06:37:51 10° SSE visible
16 Oct ? 18:52:12 10° SSW 18:55:38 32° W 18:59:05 10° NNW visible
17 Oct ? 06:18:09 10° NE 06:20:39 17° E 06:23:09 10° SE visible
18 Oct ? 06:04:47 10° ENE 06:06:26 12° E 06:08:04 10° ESE visible
19 Oct ? 19:47:12 10° W 19:48:02 11° W 19:48:52 10° WNW visible
20 Oct ? 07:09:12 10° NNE 07:12:54 54° E 07:16:33 10° S visible
20 Oct ? 19:31:39 10° WSW 19:33:47 14° W 19:35:56 10° NW visible
21 Oct ? 06:55:14 10° NNE 06:58:46 38° E 07:02:16 10° SSE visible
21 Oct ? 19:16:48 10° SW 19:19:35 19° W 19:22:23 10° NW visible
22 Oct ? 06:41:21 10° NE 06:44:37 28° E 06:47:52 10° SSE visible
22 Oct ? 19:02:11 10° SSW 19:05:23 26° W 19:08:37 10° NW visible
23 Oct ? 06:27:33 10° NE 06:30:26 21° E 06:33:18 10° SE visible
23 Oct ? 18:47:45 10° SSW 18:51:14 36° W 18:54:44 10° NNW visible
